elheraldo.hn alexa rank chart, elheraldo.hn alexa rank daily changes

elheraldo.hn alexa rank chart, elheraldo.hn alexa rank daily changes

elheraldo.hn
Actual rank:
35 919

RANK HISTORY

Date Rank Diff
2017/05/27 35 919 -103
2017/05/26 36 022 +149
2017/05/25 35 873 -418
2017/05/24 36 291 -353
2017/05/23 36 644 +298
2017/05/22 36 346 -200
2017/05/21 36 546 -38
2017/05/20 36 584 +191
2017/05/19 36 393 +67
2017/05/18 36 326 -198
2017/05/17 36 524 -297
2017/05/16 36 821 +41
2017/05/15 36 780 -304
2017/05/14 37 084 +16
2017/05/13 37 068 +248
2017/05/12 36 820 +375
2017/05/11 36 445 -414
2017/05/10 36 859 -228
2017/05/09 37 087 +190
2017/05/08 36 897 +310
2017/05/07 36 587 +230
2017/05/06 36 357 +168
2017/05/05 36 189 +392
2017/05/04 35 797 -40
2017/05/03 35 837 +60
2017/05/02 35 777 +356
2017/05/01 35 421 +726
2017/04/30 34 695 +154
2017/04/29 34 541 +435
2017/04/28 34 106 +396
2017/04/27 33 710 -134
2017/04/26 33 844 +167
2017/04/25 33 677 +486
2017/04/24 33 191 +641
2017/04/23 32 550 +355
2017/04/22 32 195 +477
2017/04/21 31 718 -256
2017/04/20 31 974 -114
2017/04/19 32 088 +196
2017/04/18 31 892 +546
2017/04/17 31 346 +447
2017/04/16 30 899 +685
2017/04/15 30 214 +998
2017/04/14 29 216 +177
2017/04/13 29 039 +88
2017/04/12 28 951 +338
2017/04/11 28 613 +423
2017/04/10 28 190 +317
2017/04/09 27 873 +349
2017/04/08 27 524 +236
2017/04/07 27 288 -75
2017/04/06 27 363 -198
2017/04/05 27 561 +96
2017/04/04 27 465 +308
2017/04/03 27 157 +282
2017/04/02 26 875 +9
2017/04/01 26 866 +101
2017/03/31 26 765 -47
2017/03/30 26 812 +127
2017/03/29 26 685 +51
2017/03/28 26 634

WIDGET FOR YOUR SITE

DOMAINS WITH THE NEAREST RANK

Domain Rank
alfresco.com 35 914
wepiao.com 35 915
glamourmagazine.co.uk 35 916
keos.space 35 917
mg-zip.com 35 918
elheraldo.hn 35 919
games-portal.ws 35 920
iqosphere.jp 35 921
schoolworld.com 35 922
mojtv.hr 35 923
billpaysite.com 35 924

DOMAINS WITH THE NEAREST RANK BY TLD .hn

Domain Rank
diez.hn 30 376
gob.hn 34 546
elheraldo.hn 35 919